This demonstration page uses our WeatherBlox Daily Observations layout. Learn more.

38.89511, -77.03637

Hourly Observations for August 26, 2015

Temp ( °F °C ) Dew Point ( °F °C ) Humidity (%) Winds ( mph kmh ) Pressure ( in mb ) Visibility ( mi km ) Precip ( " mm )
12:52 am 00:52 Partly Cloudy 70 21.1 56 13.3 61 61 N 7 11 29.96 1015 10 16.0934 0 0
1:52 am 01:52 Partly Cloudy 69 20.6 56 13.3 63 63 NNW 6 9 29.97 1015 10 16.0934 0 0
2:52 am 02:52 Mostly Cloudy 69 20.6 57 13.9 66 66 N 7 11 29.96 1015 10 16.0934 0 0
3:52 am 03:52 Mostly Cloudy 69 20.6 56 13.3 63 63 NNW 7 11 29.97 1015 10 16.0934 0 0
4:52 am 04:52 Mostly Cloudy 69 20.6 57 13.9 66 66 NNW 7 11 29.98 1015 10 16.0934 0 0
5:52 am 05:52 Mostly Cloudy 67 19.4 57 13.9 71 71 NNW 8 13 29.99 1016 10 16.0934 0 0
6:52 am 06:52 Mostly Cloudy 67 19.4 56 13.3 68 68 NNW 8 13 30.02 1017 10 16.0934 0 0
7:52 am 07:52 Partly Cloudy 69 20.6 55 12.8 61 61 NNW 12 19 30.03 1017 10 16.0934 0 0
8:52 am 08:52 Partly Cloudy 72 22.2 54 12.2 53 53 NNW 12 19 30.04 1017 10 16.0934 0 0
9:52 am 09:52 Mostly Cloudy 72 22.2 53 11.7 52 52 NW 12 19 30.05 1018 10 16.0934 0 0
10:52 am 10:52 Mostly Cloudy 75 23.9 53 11.7 46 46 VRB 6 9 30.06 1018 10 16.0934 0 0
11:52 am 11:52 Mostly Cloudy 77 25 53 11.7 43 43 WNW 8 13 30.06 1018 10 16.0934 0 0
12:52 pm 12:52 Mostly Cloudy 77 25 53 11.7 43 43 W 5 7 30.06 1018 10 16.0934 0 0
1:52 pm 13:52 Mostly Cloudy 78 25.6 54 12.2 43 43 N 7 11 30.05 1018 10 16.0934 0 0
2:52 pm 14:52 Partly Cloudy 79 26.1 54 12.2 42 42 VRB 6 9 30.04 1017 10 16.0934 0 0
3:52 pm 15:52 Mostly Cloudy 81 27.2 55 12.8 41 41 NW 10 17 30.02 1017 10 16.0934 0 0
4:52 pm 16:52 Mostly Cloudy 80 26.7 53 11.7 39 39 N 14 22 30.01 1016 10 16.0934 0 0
5:52 pm 17:52 Partly Cloudy 79 26.1 53 11.7 41 41 NNW 12 19 30 1016 10 16.0934 0 0
6:52 pm 18:52 Mostly Sunny 77 25 52 11.1 42 42 NW 9 15 30.01 1016 10 16.0934 0 0
7:52 pm 19:52 Mostly Clear 76 24.4 52 11.1 43 43 NNW 7 11 30.02 1017 10 16.0934 0 0
8:52 pm 20:52 Mostly Clear 75 23.9 52 11.1 45 45 NW 7 11 30.04 1017 10 16.0934 0 0
9:52 pm 21:52 Clear 72 22.2 54 12.2 53 53 N 6 9 30.06 1018 10 16.0934 0 0
10:52 pm 22:52 Mostly Clear 72 22.2 54 12.2 53 53 NW 3 6 30.07 1018 10 16.0934 0 0
11:52 pm 23:52 Mostly Clear 69 20.6 56 13.3 63 63 NNW 6 9 30.09 1019 10 16.0934 0 0

Powered by AerisWeather